Overview Statistics Trail Chart Weather Telemetry Raw packets
 

This is the latest recevied weather packets stored in our database for station/object K6CED. If no packets are shown the sender has not sent any weather packets the latest 10 day(s).

<< 30 31 32 33 34 35 36 >>
Time Temp. Humidity Pressure Rain* Wind** Luminosity Snow
1788465056 27.22° C 39% 1015.7 hPa 0 mm - 741 W/m² -
1788464751 27.78° C 38% 1015.8 hPa 0 mm - 749 W/m² -
1788464446 27.78° C 38% 1015.8 hPa 0 mm - 756 W/m² -
1788464142 27.78° C 35% 1015.9 hPa 0 mm - 764 W/m² -
1788463837 27.78° C 36% 1016.1 hPa 0 mm - 775 W/m² -
1788463534 26.67° C 39% 1016.1 hPa 0 mm - 788 W/m² -
1788463234 26.67° C 38% 1016.3 hPa 0 mm - 798 W/m² -
1788462925 27.22° C 34% 1016.1 hPa 0 mm - 812 W/m² -
1788462625 27.22° C 38% 1016.2 hPa 0 mm - 819 W/m² -
1788462318 26.67° C 40% 1016.6 hPa 0 mm - 824 W/m² -
1788462018 26.67° C 38% 1016.7 hPa 0 mm - 829 W/m² -
1788461714 26.67° C 39% 1016.6 hPa 0 mm - 829 W/m² -
1788461409 26.67° C 40% 1016.9 hPa 0 mm - 829 W/m² -
1788461105 26.67° C 40% 1016.9 hPa 0 mm - 826 W/m² -
1788460800 26.67° C 40% 1017 hPa 0 mm - 821 W/m² -
1788460494 26.11° C 41% 1017.1 hPa 0 mm - 818 W/m² -
1788460193 26.11° C 41% 1017 hPa 0 mm - 816 W/m² -
1788459892 25.56° C 44% 1017 hPa 0 mm - 806 W/m² -
1788459588 25.56° C 44% 1017.2 hPa 0 mm - 798 W/m² -
1788459282 25° C 47% 1017 hPa 0 mm - 789 W/m² -
1788458976 25.56° C 45% 1017.1 hPa 0 mm - 780 W/m² -
1788458671 25.56° C 44% 1017.2 hPa 0 mm - 771 W/m² -
1788458371 25.56° C 42% 1017.4 hPa 0 mm - 761 W/m² -
1788458066 25° C 49% 1017.2 hPa 0 mm - 746 W/m² -
1788457759 24.44° C 51% 1017.5 hPa 0 mm - 729 W/m² -

* Rain latest hour (hover to see other rain measurements)
** Current wind speed in m/s (hover to see current wind gust speed)